Regional Weather Roundup
Issued by NWS

Home | Current Version | Previous Version | Graphics & Text | Print | Product List | Glossary On
Versions: 1 2 3 4 5 6 7 8 9 10 11 12 13 14 15 16 17 18 19 20 21 22 23 24 25 26 27 28 29 30 31 32 33 34 35 36 37 38 39 40 41 42 43 44 45 46 47 48 49 50
000
ASUS45 KBOI 052310
RWRID
WEATHER ROUNDUP FOR IDAHO
NATIONAL WEATHER SERVICE BOISE ID
400 PM MST THU MAR 05 2015

NOTE: "FAIR" INDICATES FEW OR NO CLOUDS BELOW 12000 FEET
WITH NO SIGNIFICANT WEATHER AND/OR OBSTRUCTIONS TO VISIBILITY

IDZ012-014-060000-
SOUTHWEST IDAHO


CITY           SKY/WX    TMP DP  RH WIND       PRES   REMARKS
BOISE          SUNNY     56  18  22 CALM      30.34F
CALDWELL       SUNNY     55  19  24 N3        30.36F
$$

IDZ016-017-060000-
SOUTHCENTRAL IDAHO


CITY           SKY/WX    TMP DP  RH WIND       PRES   REMARKS
BURLEY         SUNNY     53  11  18 W8        30.33S
JEROME         MOSUNNY   52  11  19 SW10      30.34F
TWIN FALLS     SUNNY     55  15  20 NW5       30.34F
$$

IDZ019>023-060000-
SOUTHEAST IDAHO


CITY           SKY/WX    TMP DP  RH WIND       PRES   REMARKS
IDAHO FALLS    MOSUNNY   45  15  30 SW14      30.34F
POCATELLO      SUNNY     50  14  23 SW16      30.35S
REXBURG        MOSUNNY   41  17  38 SW7       30.34S
$$

IDZ006-010-011-018-031-032-060000-
CENTRAL IDAHO MOUNTAINS


CITY           SKY/WX    TMP DP  RH WIND       PRES   REMARKS
MCCALL         MOSUNNY   47  14  26 W7        30.30S
HAILEY         PTSUNNY   45  19  36 E7        30.33S
STANLEY          N/A     45   8  22 N6        30.31S
SALMON         SUNNY     45  10  24 CALM      30.26S
CHALLIS        SUNNY     52   7  16 CALM      30.23F
$$

IDZ002-004-006-007-026-060000-
NORTHERN IDAHO


CITY           SKY/WX    TMP DP  RH WIND       PRES   REMARKS
LEWISTON       MOSUNNY   53  24  32 CALM      30.31S
LOWELL           N/A     54  28  36 CALM      30.30F
COEUR D`ALENE  MOSUNNY   52  19  28 SE5       30.28S
MULLAN PASS    MOSUNNY   38  13  35 VRB5      30.24R WCI  34
$$



USA.gov is the U.S. government's official web portal to all federal, state and local government web resources and services.